Historyczne dane pomiarowe

Dodano dane terminowe – wersja testowa.

Dane z okresu 1951-2019

Wersja bazy: 1.34 [2019-03-16, lista zmian], aktualizacja planowana na 2019-04-15

Dane meteo z obszaru Polski uzyskane na podstawie danych udostępnionych przez Instytut Meteorologii i Gospodarki Wodnej – Państwowy Instytut Badawczy.

 

Wybierz Datę:    

       

TemperaturaWilgotnośćWiatrCiśnienieOpadyŚniegCzas trwania zjawisk
 Stacja t tx tn tng RH VA  wxwx mslp ppp RRR   cm mm wxwxwxwxwxwxwx
1987-08-14 9.4 18.3 1.3- 76.0- 8.0 1.0---- 0.1------------
1987-08-13 9.9 15.5 2.8- 75.8- 8.0 0.0---- 0.0------------
1987-08-12 9.9 18.0 3.3- 76.3- 6.7 1.0---- 0.0------------
1987-08-11 12.3 17.0 9.0- 76.5- 7.3 3.3---- 0.0------------
1987-08-10 13.5 18.5 10.8- 84.0- 8.0 1.3---- 3.5------------
1987-08-09 11.9 23.5 2.3- 71.8- 5.3 0.0---- 0.1------------
1987-08-08 11.0 19.6 3.3- 75.0- 6.7 0.7---- 0.0------------
1987-08-07 7.4 15.0 1.3- 77.0- 8.0 0.0---- 0.0------------
1987-08-06 9.2 13.3 6.8- 80.5- 8.0 2.0---- 1.6------------
1987-08-05 10.4 15.5 7.4- 84.8- 8.0 2.0---- 3.5------------
1987-08-04 11.7 17.0 7.8- 84.5- 8.0 1.3---- 6.5------------
1987-08-03 13.8 20.0 8.3- 72.5- 8.0 1.0---- 0.0------------
1987-08-02 13.4 16.0 11.1- 70.8- 8.0 1.7---- 8.4------------
1987-08-01 13.5 21.5 4.8- 77.8- 6.7 1.0---- 3.2------------
1987-07-31 14.7 20.0 9.8- 90.0- 8.0 1.0---- 2.2------------
1987-07-30 14.5 21.0 9.3- 80.8- 6.0 0.0---- 0.3------------
1987-07-29 12.2 17.2 6.3- 77.3- 7.3 1.7---- 0.0------------
1987-07-28 11.9 14.4 10.1- 85.5- 8.0 1.7---- 8.2------------
1987-07-27 11.1 15.2 6.5- 68.8- 6.0 2.3---- 0.4------------
1987-07-26 13.0 19.0 10.3- 82.8- 8.0 0.0---- 12.4------------
1987-07-25 17.6 21.3 12.3- 75.8- 7.3 2.3---- 0.3------------
1987-07-24 18.5 28.6 13.1- 75.3- 5.3 0.7---- 25.2------------
1987-07-23 18.4 26.4 9.8- 76.5- 6.0 0.7---- 4.0------------
1987-07-22 17.8 22.3 10.3- 78.0- 7.3 0.0---- 0.0------------
1987-07-21 20.5 26.2 11.3- 66.8- 5.3 0.7---- 0.0------------
1987-07-20 21.2 26.4 15.3- 73.0- 5.3 1.7---- 0.0------------
1987-07-19 20.9 29.3 14.5- 76.3- 6.7 0.0---- 0.1------------
1987-07-18 20.5 29.2 10.8- 72.3- 5.3 0.0---- 0.0------------
1987-07-17 19.6 28.6 11.5- 77.3- 6.7 0.0---- 0.0------------
1987-07-16 17.9 27.2 9.2- 75.8- 7.3 0.0---- 0.0------------
1987-07-15 16.4 23.2 7.3- 65.8- 4.0 0.7---- 0.0------------
1987-07-14 17.2 21.3 13.3- 58.5- 4.7 2.3---- 0.0------------
1987-07-13 18.0 24.0 6.3- 70.8- 8.0 0.0---- 0.0------------
1987-07-12 19.6 27.3 5.3- 62.5- 3.3 1.0---- 9.2------------
1987-07-11 14.0 23.5 4.8- 68.0- 4.0 1.0---- 0.0------------
1987-07-10 14.3 18.1 8.3- 66.8- 6.0 2.0---- 0.0------------
1987-07-09 15.1 26.0 8.8- 79.8- 8.0 2.0---- 5.5------------
1987-07-08 18.6 28.3 5.8- 59.0- 2.0 1.3---- 0.0------------
1987-07-07 18.0 26.3 3.8- 58.3- 2.0 0.0---- 0.0------------
1987-07-06 16.1 21.0 7.3- 66.0- 4.0 1.0---- 0.0------------
1987-07-05 13.8 19.3 11.2- 81.0- 8.0 1.0---- 0.4------------
1987-07-04 18.4 22.0 13.8- 69.0- 8.0 0.0---- 2.3------------
1987-07-03 18.5 22.1 16.3- 68.0- 8.0 1.7---- 0.0------------
1987-07-02 20.0 27.3 9.0- 77.3- 6.0 1.0---- 0.4------------
1987-07-01 23.3 29.8 8.8- 67.8- 6.7 0.0---- 0.0------------
1987-06-30 18.7 24.5 12.8- 83.8- 4.0 0.0---- 0.0------------
1987-06-29 18.8 25.1 15.2- 80.3- 6.0 0.0---- 0.0------------
1987-06-28 17.6 24.5 11.8- 71.8- 2.7 1.0---- 0.2------------
1987-06-27 15.6 23.0 11.4- 83.3- 8.0 0.0---- 14.3------------
1987-06-26 13.3 22.0 3.5- 70.8- 6.0 0.0---- 0.1------------
1987-06-25 13.4 17.5 12.3- 73.8- 7.3 1.7---- 0.3------------
1987-06-24 15.2 20.5 8.3- 66.0- 6.0 2.7---- 2.4------------
1987-06-23 15.3 19.0 10.4- 77.5- 8.0 2.0---- 0.0------------
1987-06-22 13.7 19.5 8.7- 80.3- 6.7 0.7---- 0.1------------
1987-06-21 14.1 22.5 4.8- 70.3- 6.7 1.0---- 4.3------------
1987-06-20 14.1 19.5 3.1- 63.5- 4.7 1.3---- 0.0------------
1987-06-19 10.5 16.2 4.3- 67.0- 4.0 1.7---- 0.0------------
1987-06-18 9.3 16.5 3.3- 70.0- 8.0 8.0---- 0.5------------
1987-06-17 8.7 12.6 5.8- 79.5- 8.0 3.0---- 0.4------------
1987-06-16 13.2 23.0 10.1- 73.8- 8.0 5.0---- 1.0------------
444.3 ms

 

Źródłem pochodzenia danych jest Instytut Meteorologii i Gospodarki Wodnej – Państwowy Instytut Badawczy. Dane Instytutu Meteorologii i Gospodarki Wodnej – Państwowego Instytutu Badawczego zostały przetworzone.

Dane źródłowe można odnaleźć na stronie https://dane.imgw.pl